Regional Weather Roundup
Issued by NWS

Home | Current Version | Previous Version | Text Only | Print | Product List | Glossary Off
Versions: 1 2 3 4 5 6 7 8 9 10 11 12 13 14 15 16 17 18 19 20 21 22 23 24 25 26 27 28 29 30 31 32 33 34 35 36 37 38 39 40 41 42 43 44 45 46 47 48 49 50

029
ASUS43 KMKX 182110
RWRWI

WISCONSIN REGIONAL WEATHER ROUNDUP
NATIONAL WEATHER SERVICE MILWAUKEE/SULLIVAN WI
300 PM CST SAT NOV 18 2017

NOTE: "FAIR" INDICATES FEW OR NO CLOUDS BELOW 12,000 FEET WITH NO
SIGNIFICANT WEATHER AND/OR OBSTRUCTIONS TO VISIBILITY.

WIZ001-002-006>008-014>016-023>028-182200-
NORTHWEST WISCONSIN

CITY           SKY/WX    TMP DP  RH WIND       PRES   REMARKS
SUPERIOR ARPT  CLOUDY    28  16  61 NW15      29.86R WCI  16
ASHLAND        CLOUDY    30  20  66 NW12      29.80R WCI  20
HAYWARD        CLOUDY    30  19  63 NW8G17    29.78R WCI  22
SIREN          MOSUNNY   32  17  55 N15       29.83S WCI  21
CUMBERLAND     MOSUNNY   32  19  59 NW17G26   29.79R WCI  21
RICE LAKE      SUNNY     33  20  59 W16       29.81R WCI  23
CHETEK         PTSUNNY   32  21  64 NW8G20    29.79R WCI  25
LADYSMITH      MOSUNNY   34  23  65 NW13      29.76S WCI  25
EAU CLAIRE     SUNNY     37  23  56 NW15      29.77R WCI  28
MENOMONIE      MOSUNNY   35  22  60 W15G21    29.80R WCI  25
NEW RICHMOND   SUNNY     33  19  57 NW17G30   29.83R WCI  22
OSCEOLA        PTSUNNY   33  20  59 NW15G26   29.88R WCI  22
$$

WIZ003>005-009-010-017-018-182200-
NORTH CENTRAL WISCONSIN

CITY           SKY/WX    TMP DP  RH WIND       PRES   REMARKS
MANITOWISH WTR CLOUDY    28  28 100 NW7       29.70S WCI  21
ARBOR VITAE    PTSUNNY   32  30  92 NW10      29.68S WCI  23
WOODRUFF       PTSUNNY   32  30  92 NW10      29.68S WCI  23
RHINELANDER    CLOUDY    31  28  89 N8G17     29.67S WCI  23
EAGLE RIVER    CLOUDY    31  29  94 NW10      29.66S WCI  22
LAND O LAKES   CLOUDY    31  29  92 NW12      29.67F WCI  22
PHILLIPS       CLOUDY    29  26  88 NW10G16   29.71R WCI  20
TOMAHAWK       CLOUDY    31  26  81 NW10G16   29.70R WCI  23
MEDFORD        CLOUDY    34  28  78 NW12      29.69S WCI  25
MERRILL        CLOUDY    34  28  80 NW9       29.69R WCI  26
$$

WIZ029-030-035-036-043>047-182200-
CENTRAL WISCONSIN

CITY           SKY/WX    TMP DP  RH WIND       PRES   REMARKS
WAUSAU         CLOUDY    35  27  72 NW14G22   29.66R WCI  26
MOSINEE        CLOUDY    36  30  80 N13       29.67S WCI  27
MARSHFIELD     CLOUDY    36  28  73 NW20      29.67S WCI  25
STEVENS POINT  CLOUDY    35  27  73 N12G20    29.67R WCI  27
WAUPACA        CLOUDY    39  31  70 NW12G18   29.65R WCI  32
WAUTOMA        CLOUDY    38  29  70 NW15G26   29.65R WCI  29
WISC RAPIDS    MOSUNNY   39  28  64 N14G24    29.68S WCI  31
CAMP DOUGLAS   MOSUNNY   41  30  65 NW17      29.69R
$$

WIZ011>013-019>022-031-037>040-048>050-182200-
NORTHEAST WISCONSIN

CITY           SKY/WX    TMP DP  RH WIND       PRES   REMARKS
ANTIGO         CLOUDY    32  29  90 NW10G20   29.64S WCI  24
SHAWANO        CLOUDY    39  31  74 NW10      29.64R WCI  32
OCONTO         CLOUDY    37  29  73 N10G18    29.61R WCI  30
STURGEON BAY   CLOUDY    39  32  76 N20G30    29.58R WCI  29
GREEN BAY      CLOUDY    38  31  76 N14       29.62R WCI  30
MANITOWOC      CLOUDY    39  32  76 NW15G23   29.58R WCI  31
APPLETON       CLOUDY    37  28  70 N12G18    29.60S WCI  30
CLINTONVILLE   CLOUDY    37  28  70 N10       29.64S WCI  30
OSHKOSH        CLOUDY    38  31  76 N13       29.61R WCI  30
$$

WIZ032>034-041-042-053>061-182200-
SOUTHWEST WISCONSIN

CITY           SKY/WX    TMP DP  RH WIND       PRES   REMARKS
LA CROSSE      MOSUNNY   44  29  55 NW15      29.75R
SPARTA         MOSUNNY   40  30  67 NW13      29.72S WCI  33
VIROQUA        MOSUNNY   40  32  73 NW14G23   29.69R WCI  32
BOSCOBEL       SUNNY     44  30  57 NW10      29.71R
PRAIRIE DU CHI SUNNY     43  29  57 NW12G25   29.73R
PLATTEVILLE    PTSUNNY   40  35  80 NW17G24   29.68R WCI  31
$$

WIZ056-057-062-063-064-067-068-182200-
SOUTH CENTRAL WISCONSIN

CITY           SKY/WX    TMP DP  RH WIND       PRES   REMARKS
REEDSBURG      PTSUNNY   38  30  72 NW14      29.67R WCI  30
BARABOO/DELLS  CLOUDY    38  30  74 NW13G20   29.66R WCI  30
LONE ROCK      MOSUNNY   41  32  70 NW14G24   29.69R
MINERAL POINT  CLOUDY    39  34  81 NW16G22   29.67R WCI  30
MADISON        CLOUDY    38  32  79 NW13G22   29.63R WCI  30
MIDDLETON      CLOUDY    39  33  78 NW18G24   29.64S WCI  30
WATERTOWN      CLOUDY    37  35  92 N10       29.60R WCI  30
MONROE         CLOUDY    36  32  87 N10G23    29.62R WCI  28
JANESVILLE     CLOUDY    39  36  87 N14G26    29.60R WCI  31
$$

WIZ051-052-058>065-066-070>072-182200-
SOUTHEAST WISCONSIN

CITY           SKY/WX    TMP DP  RH WIND       PRES   REMARKS
MILWAUKEE      CLOUDY    40  34  79 N16G29    29.55R WCI  31
WAUKESHA       CLOUDY    36  30  80 N15G22    29.57S WCI  26
MILWAUKEE/TIMM CLOUDY    37  30  75 N18G29    29.57R WCI  27
RACINE         CLOUDY    39  35  86 N17G25    29.57R WCI  30
BURLINGTON     CLOUDY    40  38  93 N18G26    29.57R WCI  31
KENOSHA        CLOUDY    39  34  82 N16G31    29.56R WCI  30
FOND DU LAC    CLOUDY    38  30  73 N13G23    29.61R WCI  30
SHEBOYGAN      CLOUDY    38  33  82 NW18G28   29.57R WCI  28
WEST BEND      CLOUDY    36  32  87 N18       29.58R WCI  25
JUNEAU         CLOUDY    37  32  83 NW12G18   29.62R WCI  29
$$

LSZ147-162-182200-
LAKE SUPERIOR

STATION/POSITION TIME  TEMP    WIND        PRES    WAVE
                       AIR SEA DIR/SP/G            HT/PER
                 (UTC) (F)     (DEG/KT/KT) (MB)    (FT/S)
DEVILS ISLAND    2100   30     310/ 20/ 22 1009.6R
SAXON HARBOR     2040   33     290/ 11/ 15 1007.8R
$$

LMZ867-665-643>646-182200-
LAKE MICHIGAN

STATION/POSITION TIME  TEMP    WIND        PRES    WAVE
                       AIR SEA DIR/SP/G            HT/PER
                 (UTC) (F)     (DEG/KT/KT) (MB)    (FT/S)
N MID LAKE BUOY  2050   41 48  340/ 23/ 27 1001.0R   4/ 5
NORTHPORT PIER   2104   41     350/ 24/ 28 1001.4
SHEBOYGAN LAKESH 2100   39     330/ 18/ 21 1001.6R
PORT WASHINGTON  2030   39     330/  9/ 16 1002.0F
MILWAUKEE LAKESH 2050   39     340/ 17/ 21   N/A
S MID LAKE BUOY  1950   44 49  360/ 29/ 35  997.1R   9/ 7
KENOSHA   LAKESH 2100   40     350/ 20/ 29 1001.0
$$

TC  - TEMPERATURE IN CELSIUS
VSB - VISIBILITY IN STATUTE MILES
WCI - WIND CHILL INDEX
HX  - HEAT INDEX





USA.gov is the U.S. government's official web portal to all federal, state and local government web resources and services.